Time,TemperatureF,DewpointF,PressureIn,WindDirection,WindDirectionDegrees,WindSpeedMPH,WindSpeedGustMPH,Humidity,HourlyPrecipIn,Conditions,Clouds,dailyrainin,SolarRadiationWatts/m^2,SoftwareType,DateUTC
2013-03-07 00:01:00,31.0,29.0,-100.00,South,173,7.0,11.0,91,-99.99,,,0.00,0.120000,,2013-03-07 07:01:00,
2013-03-07 00:11:00,31.0,29.0,-100.00,South,173,7.0,11.0,91,-99.99,,,0.00,0.120000,,2013-03-07 07:11:00,
2013-03-07 00:42:00,32.0,26.0,-100.00,South,183,10.0,16.0,78,-99.99,,,0.00,0.120000,,2013-03-07 07:42:00,
2013-03-07 00:52:00,32.0,26.0,-100.00,South,183,10.0,16.0,78,-99.99,,,0.00,0.120000,,2013-03-07 07:52:00,
2013-03-07 01:11:00,32.0,26.0,-100.00,South,183,10.0,16.0,78,-99.99,,,0.00,0.120000,,2013-03-07 08:11:00,
2013-03-07 01:43:00,32.0,26.0,-100.00,SSW,193,11.0,15.0,77,-99.99,,,0.00,0.120000,,2013-03-07 08:43:00,
2013-03-07 01:53:00,32.0,26.0,-100.00,SSW,193,11.0,15.0,77,-99.99,,,0.00,0.120000,,2013-03-07 08:53:00,
2013-03-07 02:02:00,32.0,26.0,-100.00,SSW,193,11.0,15.0,77,-99.99,,,0.00,0.120000,,2013-03-07 09:02:00,
2013-03-07 02:11:00,32.0,26.0,-100.00,SSW,193,11.0,15.0,77,-99.99,,,0.00,0.120000,,2013-03-07 09:11:00,
2013-03-07 02:42:00,32.0,24.0,-100.00,South,180,11.0,16.0,72,-99.99,,,0.00,0.120000,,2013-03-07 09:42:00,
2013-03-07 02:53:00,32.0,24.0,-100.00,South,180,11.0,16.0,72,-99.99,,,0.00,0.120000,,2013-03-07 09:53:00,
2013-03-07 03:02:00,32.0,24.0,-100.00,South,180,11.0,16.0,72,-99.99,,,0.00,0.120000,,2013-03-07 10:02:00,
2013-03-07 03:11:00,32.0,24.0,-100.00,South,180,11.0,16.0,72,-99.99,,,0.00,0.120000,,2013-03-07 10:11:00,
2013-03-07 03:42:00,32.0,24.0,-100.00,SSW,201,10.0,17.0,73,-99.99,,,0.00,0.120000,,2013-03-07 10:42:00,
2013-03-07 03:53:00,32.0,24.0,-100.00,SSW,201,10.0,17.0,73,-99.99,,,0.00,0.120000,,2013-03-07 10:53:00,
2013-03-07 04:02:00,32.0,24.0,-100.00,SSW,201,10.0,17.0,73,-99.99,,,0.00,0.120000,,2013-03-07 11:02:00,
2013-03-07 04:11:00,32.0,24.0,-100.00,SSW,201,10.0,17.0,73,-99.99,,,0.00,0.120000,,2013-03-07 11:11:00,
2013-03-07 04:42:00,33.0,21.0,-100.00,SW,225,11.0,19.0,59,-99.99,,,0.00,0.120000,,2013-03-07 11:42:00,
2013-03-07 04:54:00,33.0,21.0,-100.00,SW,225,11.0,19.0,59,-99.99,,,0.00,0.120000,,2013-03-07 11:54:00,
2013-03-07 05:02:00,33.0,21.0,-100.00,SW,225,11.0,19.0,59,-99.99,,,0.00,0.120000,,2013-03-07 12:02:00,
2013-03-07 05:11:00,33.0,21.0,-100.00,SW,225,11.0,19.0,59,-99.99,,,0.00,0.120000,,2013-03-07 12:11:00,
2013-03-07 05:33:00,31.0,19.0,-100.00,SSW,206,10.0,16.0,60,-99.99,,,0.00,0.120000,,2013-03-07 12:33:00,
2013-03-07 05:42:00,31.0,19.0,-100.00,SSW,206,10.0,16.0,60,-99.99,,,0.00,0.120000,,2013-03-07 12:42:00,
2013-03-07 05:52:00,31.0,19.0,-100.00,SSW,206,10.0,16.0,60,-99.99,,,0.00,0.120000,,2013-03-07 12:52:00,
2013-03-07 06:02:00,31.0,19.0,-100.00,SSW,206,10.0,16.0,60,-99.99,,,0.00,0.120000,,2013-03-07 13:02:00,
2013-03-07 06:12:00,31.0,19.0,-100.00,SSW,206,10.0,16.0,60,-99.99,,,0.00,0.120000,,2013-03-07 13:12:00,
2013-03-07 07:42:00,27.0,19.0,-100.00,West,270,4.0,8.0,73,-99.99,,,0.00,9.070000,,2013-03-07 14:42:00,
2013-03-07 07:53:00,27.0,19.0,-100.00,West,270,4.0,8.0,73,-99.99,,,0.00,9.070000,,2013-03-07 14:53:00,
2013-03-07 08:02:00,27.0,19.0,-100.00,West,270,4.0,8.0,73,-99.99,,,0.00,9.070000,,2013-03-07 15:02:00,
2013-03-07 08:11:00,27.0,19.0,-100.00,West,270,4.0,8.0,73,-99.99,,,0.00,9.070000,,2013-03-07 15:11:00,
2013-03-07 08:42:00,31.0,20.0,-100.00,South,183,9.0,13.0,63,-99.99,,,0.00,195.130005,,2013-03-07 15:42:00,
2013-03-07 08:53:00,31.0,20.0,-100.00,South,183,9.0,13.0,63,-99.99,,,0.00,195.130005,,2013-03-07 15:53:00,
2013-03-07 09:01:00,31.0,20.0,-100.00,South,183,9.0,13.0,63,-99.99,,,0.00,195.130005,,2013-03-07 16:01:00,
2013-03-07 09:11:00,31.0,20.0,-100.00,South,183,9.0,13.0,63,-99.99,,,0.00,195.130005,,2013-03-07 16:11:00,
2013-03-07 09:42:00,36.0,21.0,-100.00,SSW,192,14.0,20.0,55,-99.99,,,-99.99,436.170013,,2013-03-07 16:42:00,
2013-03-07 09:53:00,36.0,21.0,-100.00,SSW,192,14.0,20.0,55,-99.99,,,-99.99,436.170013,,2013-03-07 16:53:00,
2013-03-07 10:01:00,36.0,21.0,-100.00,SSW,192,14.0,20.0,55,-99.99,,,-99.99,436.170013,,2013-03-07 17:01:00,
2013-03-07 10:11:00,36.0,21.0,-100.00,SSW,192,14.0,20.0,55,-99.99,,,-99.99,436.170013,,2013-03-07 17:11:00,
2013-03-07 10:42:00,38.0,17.0,-100.00,South,181,12.0,18.0,41,-99.99,,,0.00,526.130005,,2013-03-07 17:42:00,
2013-03-07 10:54:00,38.0,17.0,-100.00,South,181,12.0,18.0,41,-99.99,,,0.00,526.130005,,2013-03-07 17:54:00,
2013-03-07 11:02:00,38.0,17.0,-100.00,South,181,12.0,18.0,41,-99.99,,,0.00,526.130005,,2013-03-07 18:02:00,
2013-03-07 11:11:00,38.0,17.0,-100.00,South,181,12.0,18.0,41,-99.99,,,0.00,526.130005,,2013-03-07 18:11:00,
2013-03-07 11:42:00,40.0,15.0,-100.00,South,176,11.0,18.0,35,-99.99,,,0.00,668.849976,,2013-03-07 18:42:00,
2013-03-07 11:52:00,40.0,15.0,-100.00,South,176,11.0,18.0,35,-99.99,,,0.00,668.849976,,2013-03-07 18:52:00,
2013-03-07 12:02:00,40.0,15.0,-100.00,South,176,11.0,18.0,35,-99.99,,,0.00,668.849976,,2013-03-07 19:02:00,
2013-03-07 12:11:00,40.0,15.0,-100.00,South,176,11.0,18.0,35,-99.99,,,0.00,668.849976,,2013-03-07 19:11:00,
2013-03-07 12:43:00,41.0,14.0,-100.00,SSW,200,8.0,15.0,32,-99.99,,,0.00,745.320007,,2013-03-07 19:43:00,
2013-03-07 12:52:00,41.0,14.0,-100.00,SSW,200,8.0,15.0,32,-99.99,,,0.00,745.320007,,2013-03-07 19:52:00,
2013-03-07 13:01:00,41.0,14.0,-100.00,SSW,200,8.0,15.0,32,-99.99,,,0.00,745.320007,,2013-03-07 20:01:00,
2013-03-07 13:12:00,41.0,14.0,-100.00,SSW,200,8.0,15.0,32,-99.99,,,0.00,745.320007,,2013-03-07 20:12:00,
2013-03-07 13:42:00,43.0,14.0,-100.00,SW,216,9.0,18.0,30,-99.99,,,0.00,841.429993,,2013-03-07 20:42:00,
2013-03-07 13:53:00,43.0,14.0,-100.00,SW,216,9.0,18.0,30,-99.99,,,0.00,841.429993,,2013-03-07 20:53:00,
2013-03-07 14:02:00,43.0,14.0,-100.00,SW,216,9.0,18.0,30,-99.99,,,0.00,841.429993,,2013-03-07 21:02:00,
2013-03-07 14:11:00,43.0,14.0,-100.00,SW,216,9.0,18.0,30,-99.99,,,0.00,841.429993,,2013-03-07 21:11:00,
2013-03-07 14:42:00,44.0,14.0,-100.00,SW,215,8.0,16.0,29,-99.99,,,0.00,808.539978,,2013-03-07 21:42:00,
2013-03-07 14:52:00,44.0,14.0,-100.00,SW,215,8.0,16.0,29,-99.99,,,0.00,808.539978,,2013-03-07 21:52:00,
2013-03-07 15:01:00,44.0,14.0,-100.00,SW,215,8.0,16.0,29,-99.99,,,0.00,808.539978,,2013-03-07 22:01:00,
2013-03-07 15:11:00,44.0,14.0,-100.00,SW,215,8.0,16.0,29,-99.99,,,0.00,808.539978,,2013-03-07 22:11:00,
2013-03-07 15:42:00,44.0,16.0,-100.00,NNE,25,7.0,12.0,31,-99.99,,,0.00,637.000000,,2013-03-07 22:42:00,
2013-03-07 15:54:00,44.0,16.0,-100.00,NNE,25,7.0,12.0,31,-99.99,,,0.00,637.000000,,2013-03-07 22:54:00,
2013-03-07 16:02:00,44.0,16.0,-100.00,NNE,25,7.0,12.0,31,-99.99,,,0.00,637.000000,,2013-03-07 23:02:00,
2013-03-07 16:12:00,44.0,16.0,-100.00,NNE,25,7.0,12.0,31,-99.99,,,0.00,637.000000,,2013-03-07 23:12:00,
2013-03-07 16:42:00,40.0,16.0,-100.00,North,0,12.0,17.0,37,-99.99,,,0.00,140.970001,,2013-03-07 23:42:00,
2013-03-07 16:53:00,40.0,16.0,-100.00,North,0,12.0,17.0,37,-99.99,,,0.00,140.970001,,2013-03-07 23:53:00,
2013-03-07 17:02:00,40.0,16.0,-100.00,North,0,12.0,17.0,37,-99.99,,,0.00,140.970001,,2013-03-08 00:02:00,
2013-03-07 17:11:00,40.0,16.0,-100.00,North,0,12.0,17.0,37,-99.99,,,0.00,140.970001,,2013-03-08 00:11:00,
2013-03-07 17:43:00,40.0,18.0,-100.00,North,8,8.0,12.0,40,-99.99,,,0.00,84.260002,,2013-03-08 00:43:00,
2013-03-07 17:53:00,40.0,18.0,-100.00,North,8,8.0,12.0,40,-99.99,,,0.00,84.260002,,2013-03-08 00:53:00,
2013-03-07 18:01:00,40.0,18.0,-100.00,North,8,8.0,12.0,40,-99.99,,,0.00,84.260002,,2013-03-08 01:01:00,
2013-03-07 18:11:00,40.0,18.0,-100.00,North,8,8.0,12.0,40,-99.99,,,0.00,84.260002,,2013-03-08 01:11:00,
2013-03-07 18:32:00,36.0,19.0,-100.00,North,3,5.0,6.0,50,-99.99,,,0.00,22.900000,,2013-03-08 01:32:00,
2013-03-07 18:42:00,36.0,19.0,-100.00,North,3,5.0,6.0,50,-99.99,,,0.00,22.900000,,2013-03-08 01:42:00,
2013-03-07 18:52:00,36.0,19.0,-100.00,North,3,5.0,6.0,50,-99.99,,,0.00,22.900000,,2013-03-08 01:52:00,
2013-03-07 19:01:00,36.0,19.0,-100.00,North,3,5.0,6.0,50,-99.99,,,0.00,22.900000,,2013-03-08 02:01:00,
2013-03-07 19:11:00,36.0,19.0,-100.00,North,3,5.0,6.0,50,-99.99,,,0.00,22.900000,,2013-03-08 02:11:00,
2013-03-07 19:42:00,31.0,19.0,-100.00,North,358,5.0,8.0,61,-99.99,,,0.00,0.120000,,2013-03-08 02:42:00,
2013-03-07 19:52:00,31.0,19.0,-100.00,North,358,5.0,8.0,61,-99.99,,,0.00,0.120000,,2013-03-08 02:52:00,
2013-03-07 20:02:00,31.0,19.0,-100.00,North,358,5.0,8.0,61,-99.99,,,0.00,0.120000,,2013-03-08 03:02:00,
2013-03-07 20:11:00,31.0,19.0,-100.00,North,358,5.0,8.0,61,-99.99,,,0.00,0.120000,,2013-03-08 03:11:00,
2013-03-07 20:42:00,28.0,19.0,-100.00,NNE,15,4.0,6.0,68,-99.99,,,0.00,0.120000,,2013-03-08 03:42:00,
2013-03-07 20:52:00,28.0,19.0,-100.00,NNE,15,4.0,6.0,68,-99.99,,,0.00,0.120000,,2013-03-08 03:52:00,
2013-03-07 21:01:00,28.0,19.0,-100.00,NNE,15,4.0,6.0,68,-99.99,,,0.00,0.120000,,2013-03-08 04:01:00,
2013-03-07 21:11:00,28.0,19.0,-100.00,NNE,15,4.0,6.0,68,-99.99,,,0.00,0.120000,,2013-03-08 04:11:00,
2013-03-07 21:32:00,29.0,20.0,-100.00,North,355,5.0,7.0,66,-99.99,,,0.00,0.120000,,2013-03-08 04:32:00,
2013-03-07 21:42:00,29.0,20.0,-100.00,North,355,5.0,7.0,66,-99.99,,,0.00,0.120000,,2013-03-08 04:42:00,
2013-03-07 21:52:00,29.0,20.0,-100.00,North,355,5.0,7.0,66,-99.99,,,0.00,0.120000,,2013-03-08 04:52:00,
2013-03-07 22:01:00,29.0,20.0,-100.00,North,355,5.0,7.0,66,-99.99,,,0.00,0.120000,,2013-03-08 05:01:00,
2013-03-07 22:12:00,29.0,20.0,-100.00,North,355,5.0,7.0,66,-99.99,,,0.00,0.120000,,2013-03-08 05:12:00,
2013-03-07 22:42:00,27.0,19.0,-100.00,NE,45,4.0,6.0,70,-99.99,,,0.00,0.120000,,2013-03-08 05:42:00,
2013-03-07 22:52:00,27.0,19.0,-100.00,NE,45,4.0,6.0,70,-99.99,,,0.00,0.120000,,2013-03-08 05:52:00,
2013-03-07 23:01:00,27.0,19.0,-100.00,NE,45,4.0,6.0,70,-99.99,,,0.00,0.120000,,2013-03-08 06:01:00,
2013-03-07 23:11:00,27.0,19.0,-100.00,NE,45,4.0,6.0,70,-99.99,,,0.00,0.120000,,2013-03-08 06:11:00,
2013-03-07 23:32:00,26.0,19.0,-100.00,WNW,285,2.0,2.0,76,-99.99,,,0.00,0.120000,,2013-03-08 06:32:00,
2013-03-07 23:42:00,26.0,19.0,-100.00,WNW,285,2.0,2.0,76,-99.99,,,0.00,0.120000,,2013-03-08 06:42:00,
2013-03-07 23:52:00,26.0,19.0,-100.00,WNW,285,2.0,2.0,76,-99.99,,,0.00,0.120000,,2013-03-08 06:52:00,